Terminal Aerodrome Forecast
Issued by NWS Melbourne, FL

Home | Current Version | Previous Version | Text Only | Print | Product List | Glossary On
Versions: 1 2 3 4 5 6 7 8 9 10 11 12 13 14 15 16 17 18 19 20
000
FTUS42 KMLB 190532
TAFMLB
TAF
KMLB 190532Z 1906/2006 26004KT P6SM BKN250
      TEMPO 1908/1911 5SM BR
     FM191300 21009KT P6SM SCT030 BKN250
     FM191900 11007KT P6SM VCTS SCT040CB BKN250
     FM200300 19005KT P6SM FEW040 BKN250=

USA.gov is the U.S. government's official web portal to all federal, state and local government web resources and services.